Flag for U.S.A. Weather past 2 weeks in Warminster Township, Pennsylvania, U.S.A.

Now
81 °F

Sunny.


Feels Like: 81 °F
Forecast: 61 / 86 °F
Wind: 12 mph from South

Location: Doylestown Airport

Current Time: May 25, 2015 at 2:44:59 PM

Latest Report: May 25, 2015 at 1:54 PM


Visibility: 10 mi

Pressure: 30.19 "Hg

Humidity: 41%

Dew point: 55 °F

Location of Warminster TownshipLocation

Historic Weather in Warminster Township — Graph

°F

Warminster Township temperature yesterday

Maximum temperature yesterday: 79 °F (at 2:54 PM)
Minimum temperature yesterday: 43 °F (at 5:54 AM)
Average temperature yesterday: 64 °F

Past Weeks' High & Low Weather Summary

 TemperatureHumidityPressure
High83 °F (May 12, 5:54 PM)100% (May 12, 1:54 AM)30.44 "Hg (May 12, 1:54 AM)
Low41 °F (May 14, 5:54 AM)18% (May 14, 5:54 PM)29.77 "Hg (May 19, 6:54 PM)
Average63 °F63%30.11 "Hg
* Reported May 10 12:54 PM — May 25 12:54 PM, Warminster Township, Weather by CustomWeather, © 2015

Note: Actual official high and low records may vary slightly from our data, if they occured in-between our weather recording intervals... More about our weather records

Advertising

Warminster Township weather history for previous 24 hours

 ConditionsComfort  
Time TempWeatherWind HumidityBarometerVisibility
12:54 PM
Mon, May 25
81 °FSunny.12 mph42%30.20 "Hg10 mi
11:54 AM80 °FSunny.10 mph44%30.22 "Hg10 mi
10:54 AM76 °FSunny.8 mph52%30.24 "Hg10 mi
9:54 AM73 °FSunny.6 mph59%30.25 "Hg10 mi
8:54 AM68 °FPassing clouds.5 mph70%30.27 "Hg10 mi
7:54 AM62 °FSunny.No wind83%30.26 "Hg10 mi
6:54 AM59 °FSunny.No wind90%30.25 "Hg10 mi
5:54 AM60 °FClear.No wind86%30.24 "Hg10 mi
4:54 AM61 °FClear.3 mph83%30.24 "Hg10 mi
3:54 AM62 °FClear.3 mph80%30.24 "Hg10 mi
2:54 AM61 °FClear.5 mph81%30.24 "Hg10 mi
1:54 AM61 °FClear.3 mph75%30.24 "Hg10 mi
12:54 AM61 °FClear.3 mph70%30.25 "Hg10 mi
11:54 PM
Sun, May 24
64 °FClear.3 mph56%30.25 "Hg10 mi
10:54 PM66 °FClear.3 mph50%30.25 "Hg10 mi
9:54 PM68 °FClear.3 mph44%30.26 "Hg10 mi
8:54 PM70 °FSunny.3 mph39%30.24 "Hg10 mi
7:54 PM73 °FSunny.3 mph32%30.24 "Hg10 mi
6:54 PM77 °FSunny.6 mph23%30.23 "Hg10 mi
5:54 PM78 °FSunny.6 mph20%30.23 "Hg10 mi
4:54 PM78 °FSunny.9 mph21%30.24 "Hg10 mi
3:54 PM79 °FSunny.9 mph23%30.25 "Hg10 mi
2:54 PM79 °FSunny.10 mph25%30.27 "Hg10 mi
Weather by CustomWeather, © 2015

See weather overviewHow to use our weather pages